Time,TemperatureF,DewpointF,PressureIn,WindDirection,WindDirectionDegrees,WindSpeedMPH,WindSpeedGustMPH,Humidity,HourlyPrecipIn,Conditions,Clouds,dailyrainin,SoftwareType,DateUTC
2013-11-06 00:01:00,52.9,48.5,30.03,SW,225,13.8,13.8,85,0.00,CLR,,0.00,WeatherDisplay:10.37,2013-11-06 05:01:00,
2013-11-06 00:06:00,52.9,48.5,30.02,SW,225,10.4,10.4,85,0.00,CLR,,0.00,WeatherDisplay:10.37,2013-11-06 05:06:00,
2013-11-06 00:11:00,52.7,48.0,30.02,South,180,10.4,10.4,84,0.00,CLR,,0.00,WeatherDisplay:10.37,2013-11-06 05:11:00,
2013-11-06 00:16:00,52.7,48.0,30.02,SSW,202,13.8,13.8,84,0.00,CLR,,0.00,WeatherDisplay:10.37,2013-11-06 05:16:00,
2013-11-06 00:21:00,52.7,48.0,30.02,SW,225,10.4,10.4,84,0.00,CLR,,0.00,WeatherDisplay:10.37,2013-11-06 05:21:00,
2013-11-06 00:26:00,52.7,48.0,30.01,South,180,11.5,11.5,84,0.00,CLR,,0.00,WeatherDisplay:10.37,2013-11-06 05:26:00,
2013-11-06 00:31:00,52.7,48.0,30.01,South,180,15.0,15.0,84,0.00,CLR,,0.00,WeatherDisplay:10.37,2013-11-06 05:31:00,
2013-11-06 00:36:00,52.9,48.2,30.01,South,180,13.8,13.8,84,0.00,CLR,,0.00,WeatherDisplay:10.37,2013-11-06 05:36:00,
2013-11-06 00:41:00,52.9,47.9,30.00,South,180,12.7,12.7,83,0.00,CLR,,0.00,WeatherDisplay:10.37,2013-11-06 05:41:00,
2013-11-06 00:46:00,53.1,48.0,30.00,SW,225,10.4,10.4,83,0.00,CLR,,0.00,WeatherDisplay:10.37,2013-11-06 05:46:00,
2013-11-06 00:51:00,53.1,48.0,30.00,South,180,11.5,11.5,83,0.00,CLR,,0.00,WeatherDisplay:10.37,2013-11-06 05:51:00,
2013-11-06 00:56:00,53.1,47.7,30.00,SSW,202,9.2,9.2,82,0.00,CLR,,0.00,WeatherDisplay:10.37,2013-11-06 05:56:00,
2013-11-06 01:01:00,53.1,47.7,30.00,South,180,12.7,12.7,82,0.00,CLR,,0.00,WeatherDisplay:10.37,2013-11-06 06:01:00,
2013-11-06 01:06:00,53.1,47.7,29.99,South,180,12.7,12.7,82,0.00,CLR,,0.00,WeatherDisplay:10.37,2013-11-06 06:06:00,
2013-11-06 01:11:00,53.1,47.4,29.99,South,180,12.7,12.7,81,0.00,CLR,,0.00,WeatherDisplay:10.37,2013-11-06 06:11:00,
2013-11-06 01:16:00,53.1,47.4,29.99,SW,225,12.7,12.7,81,0.00,CLR,,0.00,WeatherDisplay:10.37,2013-11-06 06:16:00,
2013-11-06 01:21:00,53.2,47.2,29.99,SSW,202,13.8,13.8,80,0.00,CLR,,0.00,WeatherDisplay:10.37,2013-11-06 06:21:00,
2013-11-06 01:26:00,53.2,47.2,29.99,South,180,15.0,15.0,80,0.00,CLR,,0.00,WeatherDisplay:10.37,2013-11-06 06:26:00,
2013-11-06 01:31:00,53.2,47.2,29.98,South,180,10.4,10.4,80,0.00,CLR,,0.00,WeatherDisplay:10.37,2013-11-06 06:31:00,
2013-11-06 01:36:00,53.2,46.9,29.99,South,180,12.7,12.7,79,0.00,CLR,,0.00,WeatherDisplay:10.37,2013-11-06 06:36:00,
2013-11-06 01:41:00,53.2,46.9,29.97,South,180,13.8,13.8,79,0.00,CLR,,0.00,WeatherDisplay:10.37,2013-11-06 06:41:00,
2013-11-06 01:46:00,53.2,46.9,29.97,SW,225,15.0,15.0,79,0.00,CLR,,0.00,WeatherDisplay:10.37,2013-11-06 06:46:00,
2013-11-06 01:51:00,53.2,46.9,29.97,SW,225,9.2,9.2,79,0.00,CLR,,0.00,WeatherDisplay:10.37,2013-11-06 06:51:00,
2013-11-06 01:56:00,53.4,46.7,29.97,SW,225,12.7,12.7,78,0.00,CLR,,0.00,WeatherDisplay:10.37,2013-11-06 06:56:00,
2013-11-06 02:02:00,53.4,46.7,29.97,WSW,248,11.5,11.5,78,0.00,CLR,,0.00,WeatherDisplay:10.37,2013-11-06 07:02:00,
2013-11-06 02:07:00,53.4,46.7,29.97,WSW,248,11.5,11.5,78,0.00,CLR,,0.00,WeatherDisplay:10.37,2013-11-06 07:07:00,
2013-11-06 02:12:00,53.6,46.6,29.96,South,180,10.4,10.4,77,0.00,CLR,,0.00,WeatherDisplay:10.37,2013-11-06 07:12:00,
2013-11-06 02:17:00,53.6,46.6,29.96,South,180,16.1,16.1,77,0.00,CLR,,0.00,WeatherDisplay:10.37,2013-11-06 07:17:00,
2013-11-06 02:22:00,53.8,46.7,29.96,SW,225,11.5,11.5,77,0.00,CLR,,0.00,WeatherDisplay:10.37,2013-11-06 07:22:00,
2013-11-06 02:27:00,53.8,46.4,29.96,South,180,15.0,15.0,76,0.00,CLR,,0.00,WeatherDisplay:10.37,2013-11-06 07:27:00,
2013-11-06 02:32:00,53.8,46.4,29.95,SSW,202,10.4,10.4,76,0.00,CLR,,0.00,WeatherDisplay:10.37,2013-11-06 07:32:00,
2013-11-06 02:37:00,53.8,46.4,29.95,SSW,202,10.4,10.4,76,0.00,CLR,,0.00,WeatherDisplay:10.37,2013-11-06 07:37:00,
2013-11-06 02:42:00,53.8,46.4,29.95,SW,225,12.7,12.7,76,0.00,CLR,,0.00,WeatherDisplay:10.37,2013-11-06 07:42:00,
2013-11-06 02:47:00,54.0,46.2,29.95,South,180,15.0,15.0,75,0.00,CLR,,0.00,WeatherDisplay:10.37,2013-11-06 07:47:00,
2013-11-06 02:52:00,54.0,45.9,29.94,South,180,12.7,12.7,74,0.00,CLR,,0.00,WeatherDisplay:10.37,2013-11-06 07:52:00,
2013-11-06 02:57:00,54.1,46.0,29.95,SW,225,13.8,13.8,74,0.00,CLR,,0.00,WeatherDisplay:10.37,2013-11-06 07:57:00,
2013-11-06 03:02:00,54.1,45.7,29.95,South,180,10.4,10.4,73,0.00,CLR,,0.00,WeatherDisplay:10.37,2013-11-06 08:02:00,
2013-11-06 03:07:00,54.1,45.7,29.95,South,180,10.4,10.4,73,0.00,CLR,,0.00,WeatherDisplay:10.37,2013-11-06 08:07:00,
2013-11-06 03:12:00,54.3,46.2,29.94,SW,225,17.3,17.3,74,0.00,CLR,,0.00,WeatherDisplay:10.37,2013-11-06 08:12:00,
2013-11-06 03:17:00,54.1,46.7,29.93,South,180,23.0,23.0,76,0.00,CLR,,0.00,WeatherDisplay:10.37,2013-11-06 08:17:00,
2013-11-06 03:22:00,53.6,46.6,29.93,SSW,202,17.3,17.3,77,0.00,CLR,,0.00,WeatherDisplay:10.37,2013-11-06 08:22:00,
2013-11-06 03:27:00,53.4,46.7,29.92,SSW,202,16.1,16.1,78,0.00,CLR,,0.00,WeatherDisplay:10.37,2013-11-06 08:27:00,
2013-11-06 03:32:00,53.2,46.9,29.92,SW,225,15.0,15.0,79,0.00,CLR,,0.00,WeatherDisplay:10.37,2013-11-06 08:32:00,
2013-11-06 03:37:00,53.2,46.9,29.92,South,180,12.7,12.7,79,0.00,CLR,,0.00,WeatherDisplay:10.37,2013-11-06 08:37:00,
2013-11-06 03:42:00,53.2,46.9,29.91,South,180,11.5,11.5,79,0.00,CLR,,0.00,WeatherDisplay:10.37,2013-11-06 08:42:00,
2013-11-06 03:47:00,53.1,46.7,29.91,South,180,10.4,10.4,79,0.00,CLR,,0.00,WeatherDisplay:10.37,2013-11-06 08:47:00,
2013-11-06 03:52:00,53.1,47.1,29.91,SW,225,13.8,13.8,80,0.00,CLR,,0.00,WeatherDisplay:10.37,2013-11-06 08:52:00,
2013-11-06 03:57:00,53.1,47.1,29.90,South,180,11.5,11.5,80,0.00,CLR,,0.00,WeatherDisplay:10.37,2013-11-06 08:57:00,
2013-11-06 04:02:00,53.1,47.1,29.90,South,180,10.4,10.4,80,0.00,CLR,,0.00,WeatherDisplay:10.37,2013-11-06 09:02:00,
2013-11-06 04:07:00,53.1,47.1,29.89,South,180,10.4,10.4,80,0.00,CLR,,0.00,WeatherDisplay:10.37,2013-11-06 09:07:00,
2013-11-06 04:12:00,53.1,46.7,29.90,South,180,16.1,16.1,79,0.00,CLR,,0.00,WeatherDisplay:10.37,2013-11-06 09:12:00,
2013-11-06 04:17:00,53.2,46.9,29.90,SSE,158,10.4,10.4,79,0.00,CLR,,0.00,WeatherDisplay:10.37,2013-11-06 09:17:00,
2013-11-06 04:22:00,53.2,46.9,29.90,South,180,10.4,10.4,79,0.00,CLR,,0.00,WeatherDisplay:10.37,2013-11-06 09:22:00,
2013-11-06 04:27:00,53.2,46.9,29.90,SSW,202,8.1,8.1,79,0.00,CLR,,0.00,WeatherDisplay:10.37,2013-11-06 09:27:00,
2013-11-06 04:32:00,53.4,47.1,29.89,South,180,10.4,10.4,79,0.00,CLR,,0.00,WeatherDisplay:10.37,2013-11-06 09:32:00,
2013-11-06 04:37:00,53.4,47.1,29.89,South,180,8.1,8.1,79,0.00,CLR,,0.00,WeatherDisplay:10.37,2013-11-06 09:37:00,
2013-11-06 04:42:00,53.6,46.9,29.88,SW,225,20.7,20.7,78,0.00,CLR,,0.00,WeatherDisplay:10.37,2013-11-06 09:42:00,
2013-11-06 04:47:00,53.8,47.1,29.88,SE,135,10.7,10.7,78,0.00,CLR,,0.00,WeatherDisplay:10.37,2013-11-06 09:47:00,
2013-11-06 04:52:00,53.8,46.7,29.88,South,180,13.8,13.8,77,0.00,CLR,,0.00,WeatherDisplay:10.37,2013-11-06 09:52:00,
2013-11-06 04:57:00,54.0,46.9,29.88,NNE,22,16.1,16.1,77,0.00,CLR,,0.00,WeatherDisplay:10.37,2013-11-06 09:57:00,
2013-11-06 05:02:00,54.0,46.9,29.88,SSW,202,11.5,11.5,77,0.00,CLR,,0.00,WeatherDisplay:10.37,2013-11-06 10:02:00,
2013-11-06 05:07:00,54.1,46.7,29.87,South,180,11.5,11.5,76,0.00,CLR,,0.00,WeatherDisplay:10.37,2013-11-06 10:07:00,
2013-11-06 05:12:00,54.1,46.7,29.88,South,180,12.7,12.7,76,0.00,CLR,,0.00,WeatherDisplay:10.37,2013-11-06 10:12:00,
2013-11-06 05:17:00,54.1,46.4,29.87,SW,225,13.8,13.8,75,0.00,CLR,,0.00,WeatherDisplay:10.37,2013-11-06 10:17:00,
2013-11-06 05:22:00,54.3,46.6,29.87,South,180,13.8,13.8,75,0.00,CLR,,0.00,WeatherDisplay:10.37,2013-11-06 10:22:00,
2013-11-06 05:27:00,54.5,46.4,29.87,SW,225,12.7,12.7,74,0.00,CLR,,0.00,WeatherDisplay:10.37,2013-11-06 10:27:00,
2013-11-06 05:32:00,54.7,46.6,29.87,South,180,15.0,15.0,74,0.00,CLR,,0.00,WeatherDisplay:10.37,2013-11-06 10:32:00,
2013-11-06 05:37:00,54.9,46.4,29.86,South,180,12.7,12.7,73,0.00,CLR,,0.00,WeatherDisplay:10.37,2013-11-06 10:37:00,
2013-11-06 05:42:00,55.0,46.5,29.87,SW,225,15.0,15.0,73,0.00,CLR,,0.00,WeatherDisplay:10.37,2013-11-06 10:42:00,
2013-11-06 05:47:00,55.4,46.5,29.86,SW,225,12.7,12.7,72,0.00,CLR,,0.00,WeatherDisplay:10.37,2013-11-06 10:47:00,
2013-11-06 05:52:00,55.4,46.5,29.86,South,180,16.1,16.1,72,0.00,CLR,,0.00,WeatherDisplay:10.37,2013-11-06 10:52:00,
2013-11-06 05:57:00,55.4,46.2,29.86,SW,225,15.2,15.2,71,0.00,CLR,,0.00,WeatherDisplay:10.37,2013-11-06 10:57:00,
2013-11-06 06:02:00,55.6,46.7,29.85,SW,225,12.7,12.7,72,0.00,CLR,,0.00,WeatherDisplay:10.37,2013-11-06 11:02:00,
2013-11-06 06:07:00,55.4,46.9,29.85,South,180,12.7,12.7,73,0.00,CLR,,0.00,WeatherDisplay:10.37,2013-11-06 11:07:00,
2013-11-06 06:12:00,55.2,47.1,29.85,South,180,17.3,17.3,74,0.00,CLR,,0.00,WeatherDisplay:10.37,2013-11-06 11:12:00,
2013-11-06 06:17:00,55.2,47.1,29.85,South,180,15.0,15.0,74,0.00,CLR,,0.00,WeatherDisplay:10.37,2013-11-06 11:17:00,
2013-11-06 06:22:00,55.2,47.1,29.84,South,180,15.0,15.0,74,0.00,CLR,,0.00,WeatherDisplay:10.37,2013-11-06 11:22:00,
2013-11-06 06:27:00,55.2,47.1,29.83,South,180,10.4,10.4,74,0.00,CLR,,0.00,WeatherDisplay:10.37,2013-11-06 11:27:00,
2013-11-06 06:32:00,55.2,47.1,29.83,South,180,10.4,10.4,74,0.00,CLR,,0.00,WeatherDisplay:10.37,2013-11-06 11:32:00,
2013-11-06 06:37:00,55.0,46.9,29.82,South,180,12.7,12.7,74,0.00,CLR,,0.00,WeatherDisplay:10.37,2013-11-06 11:37:00,
2013-11-06 06:42:00,55.0,47.3,29.82,SW,225,15.0,15.0,75,0.00,CLR,,0.00,WeatherDisplay:10.37,2013-11-06 11:42:00,
2013-11-06 06:47:00,55.0,47.3,29.82,South,180,15.0,15.0,75,0.00,CLR,,0.00,WeatherDisplay:10.37,2013-11-06 11:47:00,
2013-11-06 06:52:00,55.2,47.4,29.82,South,180,17.3,17.3,75,0.00,CLR,,0.00,WeatherDisplay:10.37,2013-11-06 11:52:00,
2013-11-06 06:57:00,55.4,47.6,29.81,SW,225,17.3,17.3,75,0.00,CLR,,0.00,WeatherDisplay:10.37,2013-11-06 11:57:00,
2013-11-06 07:02:00,55.4,47.6,29.81,SSW,202,12.7,12.7,75,0.00,CLR,,0.00,WeatherDisplay:10.37,2013-11-06 12:02:00,
2013-11-06 07:07:00,55.4,47.6,29.80,SSW,202,12.7,12.7,75,0.00,CLR,,0.00,WeatherDisplay:10.37,2013-11-06 12:07:00,
2013-11-06 07:12:00,55.8,48.3,29.81,South,180,12.7,12.7,76,0.00,CLR,,0.00,WeatherDisplay:10.37,2013-11-06 12:12:00,
2013-11-06 07:17:00,55.6,48.5,29.80,SSW,202,13.8,13.8,77,0.00,CLR,,0.00,WeatherDisplay:10.37,2013-11-06 12:17:00,
2013-11-06 07:22:00,55.6,48.8,29.81,South,180,17.3,17.3,78,0.00,CLR,,0.00,WeatherDisplay:10.37,2013-11-06 12:22:00,
2013-11-06 07:27:00,55.4,49.0,29.81,SW,225,18.4,18.4,79,0.00,CLR,,0.00,WeatherDisplay:10.37,2013-11-06 12:27:00,
2013-11-06 07:32:00,55.2,49.2,29.80,South,180,17.3,17.3,80,0.00,CLR,,0.00,WeatherDisplay:10.37,2013-11-06 12:32:00,
2013-11-06 07:37:00,55.2,49.5,29.81,South,180,15.0,15.0,81,0.00,CLR,,0.00,WeatherDisplay:10.37,2013-11-06 12:37:00,
2013-11-06 07:42:00,55.0,49.6,29.81,SW,225,17.3,17.3,82,0.00,CLR,,0.00,WeatherDisplay:10.37,2013-11-06 12:42:00,
2013-11-06 07:47:00,55.0,50.0,29.80,SSW,202,16.1,16.1,83,0.00,CLR,,0.00,WeatherDisplay:10.37,2013-11-06 12:47:00,
2013-11-06 07:52:00,55.0,50.3,29.80,South,180,17.3,17.3,84,0.00,CLR,,0.00,WeatherDisplay:10.37,2013-11-06 12:52:00,
2013-11-06 07:58:00,54.9,50.4,29.80,SW,225,15.0,15.0,85,0.00,CLR,,0.00,WeatherDisplay:10.37,2013-11-06 12:58:00,
2013-11-06 08:03:00,55.0,50.9,29.80,South,180,12.7,12.7,86,0.00,CLR,,0.00,WeatherDisplay:10.37,2013-11-06 13:03:00,
2013-11-06 08:08:00,54.9,51.1,29.80,South,180,12.7,12.7,87,0.00,CLR,,0.00,WeatherDisplay:10.37,2013-11-06 13:08:00,
2013-11-06 08:13:00,54.9,51.4,29.80,South,180,20.7,20.7,88,0.00,CLR,,0.00,WeatherDisplay:10.37,2013-11-06 13:13:00,
2013-11-06 08:18:00,54.7,51.5,29.80,SW,225,18.4,18.4,89,0.00,CLR,,0.00,WeatherDisplay:10.37,2013-11-06 13:18:00,
2013-11-06 08:23:00,54.7,51.8,29.80,South,180,19.6,19.6,90,0.00,CLR,,0.00,WeatherDisplay:10.37,2013-11-06 13:23:00,
2013-11-06 08:28:00,54.7,52.1,29.80,SE,135,15.0,15.0,91,0.00,CLR,,0.00,WeatherDisplay:10.37,2013-11-06 13:28:00,
2013-11-06 08:33:00,54.5,52.2,29.80,South,180,20.7,20.7,92,0.00,CLR,,0.00,WeatherDisplay:10.37,2013-11-06 13:33:00,
2013-11-06 08:38:00,54.5,52.5,29.80,WSW,248,17.3,17.3,93,0.00,CLR,,0.00,WeatherDisplay:10.37,2013-11-06 13:38:00,
2013-11-06 08:43:00,54.3,52.3,29.80,SW,225,17.3,17.3,93,0.00,CLR,,0.00,WeatherDisplay:10.37,2013-11-06 13:43:00,
2013-11-06 08:48:00,54.3,52.6,29.80,SW,225,15.0,15.0,94,0.00,CLR,,0.00,WeatherDisplay:10.37,2013-11-06 13:48:00,
2013-11-06 08:53:00,54.3,52.9,29.79,SSW,202,20.7,20.7,95,0.01,RA,,0.01,WeatherDisplay:10.37,2013-11-06 13:53:00,
2013-11-06 08:58:00,54.3,53.2,29.80,South,180,15.0,15.0,96,0.01,RA,,0.01,WeatherDisplay:10.37,2013-11-06 13:58:00,
2013-11-06 09:03:00,54.5,53.4,29.79,SW,225,16.1,16.1,96,0.01,,,0.01,WeatherDisplay:10.37,2013-11-06 14:03:00,
2013-11-06 09:08:00,54.5,53.7,29.79,SW,225,21.9,21.9,97,0.01,CLR,,0.01,WeatherDisplay:10.37,2013-11-06 14:08:00,
2013-11-06 09:13:00,54.7,54.1,29.79,SW,225,23.0,23.0,98,0.01,CLR,,0.01,WeatherDisplay:10.37,2013-11-06 14:13:00,
2013-11-06 09:18:00,54.9,54.3,29.79,SW,225,15.0,15.0,98,0.01,CLR,,0.01,WeatherDisplay:10.37,2013-11-06 14:18:00,
2013-11-06 09:23:00,54.9,54.3,29.79,SW,225,19.6,19.6,98,0.02,RA,,0.02,WeatherDisplay:10.37,2013-11-06 14:23:00,
2013-11-06 09:28:00,54.7,54.4,29.79,SW,225,19.6,19.6,99,0.04,RA,,0.04,WeatherDisplay:10.37,2013-11-06 14:28:00,
2013-11-06 09:33:00,54.7,54.4,29.79,SW,225,19.6,19.6,99,0.04,RA,,0.04,WeatherDisplay:10.37,2013-11-06 14:33:00,
2013-11-06 09:38:00,54.7,54.4,29.78,South,180,18.4,18.4,99,0.04,,,0.04,WeatherDisplay:10.37,2013-11-06 14:38:00,
2013-11-06 09:43:00,54.7,54.4,29.78,SW,225,23.0,23.0,99,0.04,CLR,,0.04,WeatherDisplay:10.37,2013-11-06 14:43:00,
2013-11-06 09:48:00,54.7,54.4,29.78,SW,225,21.9,21.9,99,0.05,RA,,0.05,WeatherDisplay:10.37,2013-11-06 14:48:00,
2013-11-06 09:53:00,54.7,54.4,29.77,SW,225,20.7,20.7,99,0.04,RA,,0.05,WeatherDisplay:10.37,2013-11-06 14:53:00,
2013-11-06 09:58:00,54.7,54.4,29.77,South,180,18.4,18.4,99,0.05,RA,,0.06,WeatherDisplay:10.37,2013-11-06 14:58:00,
2013-11-06 10:03:00,54.7,54.4,29.76,SW,225,19.6,19.6,99,0.05,RA,,0.06,WeatherDisplay:10.37,2013-11-06 15:03:00,
2013-11-06 10:08:00,54.7,54.4,29.77,SW,225,19.6,19.6,99,0.05,CLR,,0.06,WeatherDisplay:10.37,2013-11-06 15:08:00,
2013-11-06 10:13:00,54.7,54.4,29.77,SW,225,19.6,19.6,99,0.06,RA,,0.07,WeatherDisplay:10.37,2013-11-06 15:13:00,
2013-11-06 10:18:00,54.7,54.4,29.76,SW,225,21.9,21.9,99,0.07,RA,,0.08,WeatherDisplay:10.37,2013-11-06 15:18:00,
2013-11-06 10:23:00,54.9,54.6,29.76,SW,225,19.6,19.6,99,0.06,RA,,0.08,WeatherDisplay:10.37,2013-11-06 15:23:00,
2013-11-06 10:28:00,54.9,54.6,29.76,South,180,20.7,20.7,99,0.05,CLR,,0.08,WeatherDisplay:10.37,2013-11-06 15:28:00,
2013-11-06 10:33:00,55.0,54.8,29.76,SW,225,19.6,19.6,99,0.05,CLR,,0.08,WeatherDisplay:10.37,2013-11-06 15:33:00,
2013-11-06 10:38:00,55.2,54.9,29.76,WSW,248,19.6,19.6,99,0.06,RA,,0.09,WeatherDisplay:10.37,2013-11-06 15:38:00,
2013-11-06 10:43:00,55.2,54.9,29.76,SW,225,15.0,15.0,99,0.06,RA,,0.09,WeatherDisplay:10.37,2013-11-06 15:43:00,
2013-11-06 10:48:00,55.4,55.1,29.76,South,180,15.0,15.0,99,0.05,,,0.09,WeatherDisplay:10.37,2013-11-06 15:48:00,
2013-11-06 10:53:00,55.4,55.1,29.76,SW,225,17.3,17.3,99,0.05,CLR,,0.09,WeatherDisplay:10.37,2013-11-06 15:53:00,
2013-11-06 10:58:00,55.6,55.3,29.76,SSW,202,17.3,17.3,99,0.04,CLR,,0.09,WeatherDisplay:10.37,2013-11-06 15:58:00,
2013-11-06 11:03:00,55.4,55.1,29.76,SW,225,19.7,19.7,99,0.04,CLR,,0.09,WeatherDisplay:10.37,2013-11-06 16:03:00,
2013-11-06 11:08:00,55.6,55.3,29.76,SW,225,19.6,19.6,99,0.04,,,0.09,WeatherDisplay:10.37,2013-11-06 16:08:00,
2013-11-06 11:13:00,55.6,55.3,29.76,SSW,202,21.9,21.9,99,0.02,CLR,,0.09,WeatherDisplay:10.37,2013-11-06 16:13:00,
2013-11-06 11:18:00,55.6,55.3,29.76,SW,225,19.6,19.6,99,0.01,CLR,,0.09,WeatherDisplay:10.37,2013-11-06 16:18:00,
2013-11-06 11:23:00,55.6,55.3,29.76,South,180,19.6,19.6,99,0.01,CLR,,0.09,WeatherDisplay:10.37,2013-11-06 16:23:00,
2013-11-06 11:28:00,55.6,55.3,29.75,South,180,23.0,23.0,99,0.02,RA,,0.11,WeatherDisplay:10.37,2013-11-06 16:28:00,
2013-11-06 11:33:00,55.8,55.5,29.75,South,180,23.0,23.0,99,0.02,RA,,0.11,WeatherDisplay:10.37,2013-11-06 16:33:00,
2013-11-06 11:38:00,55.8,55.5,29.75,SW,225,21.9,21.9,99,0.01,,,0.11,WeatherDisplay:10.37,2013-11-06 16:38:00,
2013-11-06 11:43:00,55.9,55.7,29.75,SW,225,15.0,15.0,99,0.01,CLR,,0.11,WeatherDisplay:10.37,2013-11-06 16:43:00,
2013-11-06 11:48:00,55.9,55.7,29.74,SW,225,13.8,13.8,99,0.02,RA,,0.12,WeatherDisplay:10.37,2013-11-06 16:48:00,
2013-11-06 11:53:00,55.9,55.7,29.74,SW,225,17.3,17.3,99,0.02,RA,,0.12,WeatherDisplay:10.37,2013-11-06 16:53:00,
2013-11-06 11:58:00,55.9,55.7,29.74,West,270,20.7,20.7,99,0.02,,,0.12,WeatherDisplay:10.37,2013-11-06 16:58:00,
2013-11-06 12:03:00,55.9,55.7,29.74,WSW,248,17.3,17.3,99,0.02,CLR,,0.12,WeatherDisplay:10.37,2013-11-06 17:03:00,
2013-11-06 12:08:00,55.9,55.7,29.74,SW,225,17.3,17.3,99,0.02,CLR,,0.13,WeatherDisplay:10.37,2013-11-06 17:08:00,
2013-11-06 12:13:00,55.9,55.7,29.73,South,180,19.6,19.6,99,0.05,RA,,0.14,WeatherDisplay:10.37,2013-11-06 17:13:00,
2013-11-06 12:18:00,55.9,55.7,29.73,SW,225,17.3,17.3,99,0.05,RA,,0.14,WeatherDisplay:10.37,2013-11-06 17:18:00,
2013-11-06 12:23:00,55.9,55.7,29.73,South,180,12.7,12.7,99,0.05,,,0.14,WeatherDisplay:10.37,2013-11-06 17:23:00,
2013-11-06 12:28:00,55.9,55.7,29.72,SSW,202,19.6,19.6,99,0.04,CLR,,0.14,WeatherDisplay:10.37,2013-11-06 17:28:00,
2013-11-06 12:33:00,55.9,55.7,29.72,SW,225,15.0,15.0,99,0.04,CLR,,0.14,WeatherDisplay:10.37,2013-11-06 17:33:00,
2013-11-06 12:38:00,55.9,55.7,29.72,SW,225,23.0,23.0,99,0.05,RA,,0.15,WeatherDisplay:10.37,2013-11-06 17:38:00,
2013-11-06 12:43:00,55.9,55.7,29.72,South,180,17.3,17.3,99,0.05,RA,,0.15,WeatherDisplay:10.37,2013-11-06 17:43:00,
2013-11-06 12:48:00,55.9,55.7,29.72,SW,225,19.6,19.6,99,0.04,CLR,,0.15,WeatherDisplay:10.37,2013-11-06 17:48:00,
2013-11-06 12:53:00,55.8,55.5,29.71,SW,225,18.4,18.4,99,0.04,CLR,,0.15,WeatherDisplay:10.37,2013-11-06 17:53:00,
2013-11-06 12:58:00,55.9,55.7,29.70,SW,225,15.0,19.0,99,0.04,CLR,,0.15,WeatherDisplay:10.37,2013-11-06 17:58:00,
2013-11-06 13:03:00,55.8,55.5,29.70,SW,225,17.3,17.3,99,0.04,CLR,,0.15,WeatherDisplay:10.37,2013-11-06 18:03:00,
2013-11-06 13:08:00,55.9,55.7,29.71,SW,225,17.3,17.3,99,0.04,CLR,,0.15,WeatherDisplay:10.37,2013-11-06 18:08:00,
2013-11-06 13:13:00,55.9,55.7,29.70,SW,225,21.9,21.9,99,0.01,CLR,,0.15,WeatherDisplay:10.37,2013-11-06 18:13:00,
2013-11-06 13:18:00,55.9,55.7,29.70,SW,225,19.6,19.6,99,0.02,RA,,0.17,WeatherDisplay:10.37,2013-11-06 18:18:00,
2013-11-06 13:23:00,55.9,55.7,29.70,SSW,202,20.7,20.7,99,0.02,RA,,0.17,WeatherDisplay:10.37,2013-11-06 18:23:00,
2013-11-06 13:28:00,55.9,55.7,29.69,SW,225,21.9,21.9,99,0.02,,,0.17,WeatherDisplay:10.37,2013-11-06 18:28:00,
2013-11-06 13:33:00,55.9,55.7,29.69,West,270,17.3,17.3,99,0.02,CLR,,0.17,WeatherDisplay:10.37,2013-11-06 18:33:00,
2013-11-06 13:38:00,55.8,55.5,29.69,SW,225,16.1,16.1,99,0.02,RA,,0.18,WeatherDisplay:10.37,2013-11-06 18:38:00,
2013-11-06 13:43:00,55.9,55.7,29.69,SSW,202,20.7,20.7,99,0.02,RA,,0.18,WeatherDisplay:10.37,2013-11-06 18:43:00,
2013-11-06 13:48:00,55.9,55.7,29.69,SW,225,19.6,19.6,99,0.02,,,0.19,WeatherDisplay:10.37,2013-11-06 18:48:00,
2013-11-06 13:53:00,55.8,55.5,29.69,SW,225,20.7,20.7,99,0.04,RA,,0.19,WeatherDisplay:10.37,2013-11-06 18:53:00,
2013-11-06 13:58:00,55.9,55.7,29.68,West,270,17.3,17.3,99,0.04,RA,,0.19,WeatherDisplay:10.37,2013-11-06 18:58:00,
2013-11-06 14:03:00,55.9,55.7,29.69,SW,225,17.3,17.3,99,0.05,RA,,0.20,WeatherDisplay:10.37,2013-11-06 19:03:00,
2013-11-06 14:08:00,55.9,55.7,29.68,SW,225,17.3,17.3,99,0.05,RA,,0.20,WeatherDisplay:10.37,2013-11-06 19:08:00,
2013-11-06 14:13:00,55.9,55.7,29.67,SW,225,10.4,12.1,99,0.05,CLR,,0.20,WeatherDisplay:10.37,2013-11-06 19:13:00,
2013-11-06 14:18:00,55.9,55.7,29.67,SW,225,13.8,13.8,99,0.04,CLR,,0.20,WeatherDisplay:10.37,2013-11-06 19:18:00,
2013-11-06 14:23:00,56.1,55.8,29.67,South,180,15.0,15.0,99,0.04,CLR,,0.20,WeatherDisplay:10.37,2013-11-06 19:23:00,
2013-11-06 14:28:00,56.3,56.0,29.66,SW,225,21.9,21.9,99,0.04,CLR,,0.20,WeatherDisplay:10.37,2013-11-06 19:28:00,
2013-11-06 14:33:00,56.5,56.2,29.66,SW,225,19.6,19.6,99,0.04,CLR,,0.20,WeatherDisplay:10.37,2013-11-06 19:33:00,
2013-11-06 14:38:00,56.7,56.4,29.67,SW,225,19.6,19.6,99,0.02,CLR,,0.20,WeatherDisplay:10.37,2013-11-06 19:38:00,
2013-11-06 14:43:00,56.7,56.4,29.67,SW,225,23.0,23.0,99,0.02,CLR,,0.20,WeatherDisplay:10.37,2013-11-06 19:43:00,
2013-11-06 14:48:00,56.7,56.4,29.66,WSW,248,17.3,17.3,99,0.02,CLR,,0.20,WeatherDisplay:10.37,2013-11-06 19:48:00,
2013-11-06 14:53:00,56.5,56.2,29.65,SW,225,19.6,19.6,99,0.01,CLR,,0.20,WeatherDisplay:10.37,2013-11-06 19:53:00,
2013-11-06 14:58:00,56.5,56.2,29.66,SW,225,15.0,15.0,99,0.01,CLR,,0.20,WeatherDisplay:10.37,2013-11-06 19:58:00,
2013-11-06 15:03:00,56.5,56.2,29.67,SW,225,19.6,19.6,99,0.00,CLR,,0.20,WeatherDisplay:10.37,2013-11-06 20:03:00,
2013-11-06 15:08:00,56.3,56.0,29.69,SW,225,19.6,19.6,99,0.00,CLR,,0.20,WeatherDisplay:10.37,2013-11-06 20:08:00,
2013-11-06 15:13:00,56.3,56.0,29.69,SW,225,24.2,24.2,99,0.00,CLR,,0.20,WeatherDisplay:10.37,2013-11-06 20:13:00,
2013-11-06 15:18:00,56.3,56.0,29.70,SW,225,26.5,26.5,99,0.00,CLR,,0.20,WeatherDisplay:10.37,2013-11-06 20:18:00,
2013-11-06 15:23:00,56.3,56.0,29.70,WSW,248,21.9,21.9,99,0.00,CLR,,0.20,WeatherDisplay:10.37,2013-11-06 20:23:00,
2013-11-06 15:28:00,56.3,56.0,29.70,North,0,21.9,21.9,99,0.00,CLR,,0.20,WeatherDisplay:10.37,2013-11-06 20:28:00,
2013-11-06 15:33:00,56.3,56.0,29.70,SW,225,29.9,29.9,99,0.00,CLR,,0.20,WeatherDisplay:10.37,2013-11-06 20:33:00,
2013-11-06 15:38:00,56.5,56.2,29.69,NW,315,23.0,23.0,99,0.00,CLR,,0.20,WeatherDisplay:10.37,2013-11-06 20:38:00,
2013-11-06 15:43:00,56.5,56.2,29.70,SW,225,17.3,17.3,99,0.00,CLR,,0.20,WeatherDisplay:10.37,2013-11-06 20:43:00,
2013-11-06 15:48:00,56.5,56.2,29.69,SW,225,24.2,24.2,99,0.00,CLR,,0.20,WeatherDisplay:10.37,2013-11-06 20:48:00,
2013-11-06 15:53:00,56.5,56.2,29.69,SW,225,17.3,17.3,99,0.00,CLR,,0.20,WeatherDisplay:10.37,2013-11-06 20:53:00,
2013-11-06 15:58:00,56.3,56.0,29.69,SW,225,20.7,20.7,99,0.00,CLR,,0.20,WeatherDisplay:10.37,2013-11-06 20:58:00,
2013-11-06 16:03:00,56.5,56.2,29.69,WSW,248,19.6,19.6,99,0.00,CLR,,0.20,WeatherDisplay:10.37,2013-11-06 21:03:00,
2013-11-06 16:08:00,56.5,56.2,29.69,SW,225,19.6,19.6,99,0.00,CLR,,0.20,WeatherDisplay:10.37,2013-11-06 21:08:00,
2013-11-06 16:13:00,56.3,56.0,29.69,SW,225,21.9,21.9,99,0.00,CLR,,0.20,WeatherDisplay:10.37,2013-11-06 21:13:00,
2013-11-06 16:18:00,56.3,56.0,29.68,WSW,248,16.1,16.1,99,0.00,CLR,,0.20,WeatherDisplay:10.37,2013-11-06 21:18:00,
2013-11-06 16:23:00,56.1,55.8,29.69,SW,225,25.3,25.3,99,0.00,CLR,,0.20,WeatherDisplay:10.37,2013-11-06 21:23:00,
2013-11-06 16:28:00,56.1,55.8,29.69,SW,225,16.1,16.1,99,0.00,CLR,,0.20,WeatherDisplay:10.37,2013-11-06 21:28:00,
2013-11-06 16:33:00,55.9,55.7,29.69,SW,225,23.0,23.0,99,0.00,CLR,,0.20,WeatherDisplay:10.37,2013-11-06 21:33:00,
2013-11-06 16:38:00,55.9,55.7,29.70,SW,225,16.1,16.1,99,0.00,CLR,,0.20,WeatherDisplay:10.37,2013-11-06 21:38:00,
2013-11-06 16:43:00,55.9,55.7,29.69,SW,225,12.7,12.7,99,0.00,CLR,,0.20,WeatherDisplay:10.37,2013-11-06 21:43:00,
2013-11-06 16:48:00,55.9,55.7,29.70,SW,225,20.7,20.7,99,0.00,CLR,,0.20,WeatherDisplay:10.37,2013-11-06 21:48:00,
2013-11-06 16:53:00,55.9,55.7,29.69,South,180,12.7,12.7,99,0.00,CLR,,0.20,WeatherDisplay:10.37,2013-11-06 21:53:00,
2013-11-06 16:58:00,55.9,55.7,29.69,SW,225,24.2,24.2,99,0.00,CLR,,0.20,WeatherDisplay:10.37,2013-11-06 21:58:00,
2013-11-06 17:03:00,55.9,55.7,29.69,WSW,248,15.0,15.0,99,0.00,CLR,,0.20,WeatherDisplay:10.37,2013-11-06 22:03:00,
2013-11-06 17:08:00,55.9,55.7,29.69,SW,225,21.3,21.3,99,0.00,CLR,,0.20,WeatherDisplay:10.37,2013-11-06 22:08:00,
2013-11-06 17:13:00,55.9,55.7,29.69,SW,225,17.3,17.3,99,0.00,CLR,,0.20,WeatherDisplay:10.37,2013-11-06 22:13:00,
2013-11-06 17:18:00,55.8,55.5,29.69,NW,315,21.9,21.9,99,0.00,CLR,,0.20,WeatherDisplay:10.37,2013-11-06 22:18:00,
2013-11-06 17:23:00,55.8,55.5,29.69,SW,225,23.0,23.0,99,0.00,CLR,,0.20,WeatherDisplay:10.37,2013-11-06 22:23:00,
2013-11-06 17:28:00,55.8,55.5,29.69,SW,225,19.6,19.6,99,0.00,CLR,,0.20,WeatherDisplay:10.37,2013-11-06 22:28:00,
2013-11-06 17:33:00,55.8,55.5,29.69,SW,225,23.0,23.0,99,0.00,CLR,,0.20,WeatherDisplay:10.37,2013-11-06 22:33:00,
2013-11-06 17:38:00,55.8,55.5,29.70,SW,225,20.7,20.7,99,0.00,CLR,,0.20,WeatherDisplay:10.37,2013-11-06 22:38:00,
2013-11-06 17:43:00,55.8,55.5,29.70,WSW,248,17.3,17.3,99,0.00,CLR,,0.20,WeatherDisplay:10.37,2013-11-06 22:43:00,
2013-11-06 17:48:00,55.6,55.3,29.69,SW,225,17.3,17.3,99,0.00,CLR,,0.20,WeatherDisplay:10.37,2013-11-06 22:48:00,
2013-11-06 17:53:00,55.6,55.3,29.70,NW,315,18.4,18.4,99,0.00,CLR,,0.20,WeatherDisplay:10.37,2013-11-06 22:53:00,
2013-11-06 17:58:00,55.6,55.3,29.70,WSW,248,17.3,17.3,99,0.00,CLR,,0.20,WeatherDisplay:10.37,2013-11-06 22:58:00,
2013-11-06 18:03:00,55.6,55.3,29.70,SW,225,18.4,18.4,99,0.00,CLR,,0.20,WeatherDisplay:10.37,2013-11-06 23:03:00,
2013-11-06 18:08:00,55.4,55.1,29.72,NE,45,18.4,18.4,99,0.01,RA,,0.21,WeatherDisplay:10.37,2013-11-06 23:08:00,
2013-11-06 18:13:00,54.3,54.0,29.73,NNW,338,23.0,23.0,99,0.01,RA,,0.21,WeatherDisplay:10.37,2013-11-06 23:13:00,
2013-11-06 18:18:00,53.1,52.8,29.73,North,0,18.4,18.4,99,0.01,,,0.21,WeatherDisplay:10.37,2013-11-06 23:18:00,
2013-11-06 18:23:00,52.3,52.1,29.74,South,180,17.3,17.3,99,0.01,CLR,,0.21,WeatherDisplay:10.37,2013-11-06 23:23:00,
2013-11-06 18:28:00,51.3,51.0,29.74,WNW,292,20.7,20.7,99,0.02,RA,,0.22,WeatherDisplay:10.37,2013-11-06 23:28:00,
2013-11-06 18:33:00,50.5,50.3,29.75,SSW,202,20.7,20.7,99,0.02,RA,,0.22,WeatherDisplay:10.37,2013-11-06 23:33:00,
2013-11-06 18:38:00,50.0,49.7,29.75,South,180,15.0,15.0,99,0.02,CLR,,0.22,WeatherDisplay:10.37,2013-11-06 23:38:00,
2013-11-06 18:43:00,49.6,49.4,29.76,SW,225,17.3,17.3,99,0.02,CLR,,0.22,WeatherDisplay:10.37,2013-11-06 23:43:00,
2013-11-06 18:49:00,49.6,49.4,29.75,NE,45,20.7,20.7,99,0.02,CLR,,0.22,WeatherDisplay:10.37,2013-11-06 23:49:00,
2013-11-06 18:54:00,49.3,49.0,29.76,West,270,17.3,17.3,99,0.02,CLR,,0.22,WeatherDisplay:10.37,2013-11-06 23:54:00,
2013-11-06 18:59:00,48.9,48.7,29.76,South,180,17.3,17.3,99,0.02,CLR,,0.22,WeatherDisplay:10.37,2013-11-06 23:59:00,
2013-11-06 19:04:00,48.9,48.7,29.76,North,0,6.9,6.9,99,0.02,CLR,,0.22,WeatherDisplay:10.37,2013-11-07 00:04:00,
2013-11-06 19:09:00,48.7,48.5,29.77,South,180,19.6,19.6,99,0.01,CLR,,0.22,WeatherDisplay:10.37,2013-11-07 00:09:00,
2013-11-06 19:14:00,48.6,48.3,29.79,SW,225,15.0,15.0,99,0.01,CLR,,0.22,WeatherDisplay:10.37,2013-11-07 00:14:00,
2013-11-06 19:19:00,48.4,48.1,29.79,SW,225,15.0,15.0,99,0.01,CLR,,0.22,WeatherDisplay:10.37,2013-11-07 00:19:00,
2013-11-06 19:24:00,48.2,47.9,29.79,NE,45,18.4,18.4,99,0.01,CLR,,0.22,WeatherDisplay:10.37,2013-11-07 00:24:00,
2013-11-06 19:29:00,48.0,47.8,29.79,SW,225,18.4,18.4,99,0.00,CLR,,0.22,WeatherDisplay:10.37,2013-11-07 00:29:00,
2013-11-06 19:34:00,47.8,47.6,29.79,WNW,292,10.4,10.4,99,0.00,CLR,,0.22,WeatherDisplay:10.37,2013-11-07 00:34:00,
2013-11-06 19:39:00,47.7,47.4,29.80,SW,225,15.0,15.0,99,0.00,CLR,,0.22,WeatherDisplay:10.37,2013-11-07 00:39:00,
2013-11-06 19:44:00,47.5,47.2,29.80,NW,315,11.5,11.5,99,0.00,CLR,,0.22,WeatherDisplay:10.37,2013-11-07 00:44:00,
2013-11-06 19:49:00,47.5,47.2,29.81,SW,225,11.5,11.5,99,0.00,CLR,,0.22,WeatherDisplay:10.37,2013-11-07 00:49:00,
2013-11-06 19:54:00,47.3,47.0,29.81,SW,225,10.4,10.4,99,0.00,CLR,,0.22,WeatherDisplay:10.37,2013-11-07 00:54:00,
2013-11-06 19:59:00,47.1,46.9,29.81,South,180,15.0,15.0,99,0.00,CLR,,0.22,WeatherDisplay:10.37,2013-11-07 00:59:00,
2013-11-06 20:04:00,47.1,46.9,29.81,SE,135,8.1,8.1,99,0.00,CLR,,0.22,WeatherDisplay:10.37,2013-11-07 01:04:00,
2013-11-06 20:09:00,46.6,46.3,29.82,SW,225,8.1,8.1,99,0.00,CLR,,0.22,WeatherDisplay:10.37,2013-11-07 01:09:00,
2013-11-06 20:14:00,46.4,46.1,29.83,SW,225,12.7,12.7,99,0.00,CLR,,0.22,WeatherDisplay:10.37,2013-11-07 01:14:00,
2013-11-06 20:19:00,46.2,46.0,29.82,East,90,10.4,10.4,99,0.00,CLR,,0.22,WeatherDisplay:10.37,2013-11-07 01:19:00,
2013-11-06 20:24:00,46.0,45.8,29.83,West,270,5.8,5.8,99,0.00,CLR,,0.22,WeatherDisplay:10.37,2013-11-07 01:24:00,
2013-11-06 20:29:00,45.9,45.6,29.82,SW,225,5.8,5.8,99,0.00,CLR,,0.22,WeatherDisplay:10.37,2013-11-07 01:29:00,
2013-11-06 20:34:00,45.7,45.4,29.82,NW,315,4.6,4.6,99,0.00,CLR,,0.22,WeatherDisplay:10.37,2013-11-07 01:34:00,
2013-11-06 20:39:00,45.5,45.2,29.83,NW,315,12.7,12.7,99,0.00,CLR,,0.22,WeatherDisplay:10.37,2013-11-07 01:39:00,
2013-11-06 20:44:00,45.5,45.2,29.82,South,180,8.1,8.1,99,0.00,CLR,,0.22,WeatherDisplay:10.37,2013-11-07 01:44:00,
2013-11-06 20:49:00,45.3,45.1,29.83,South,180,12.7,12.7,99,0.00,CLR,,0.22,WeatherDisplay:10.37,2013-11-07 01:49:00,
2013-11-06 20:54:00,45.1,44.9,29.84,West,270,10.4,10.4,99,0.00,CLR,,0.22,WeatherDisplay:10.37,2013-11-07 01:54:00,
2013-11-06 20:59:00,45.1,44.9,29.85,SSW,202,8.1,8.1,99,0.00,CLR,,0.22,WeatherDisplay:10.37,2013-11-07 01:59:00,
2013-11-06 21:04:00,45.1,44.9,29.85,SSW,202,6.0,6.0,99,0.00,CLR,,0.22,WeatherDisplay:10.37,2013-11-07 02:04:00,
2013-11-06 21:09:00,45.0,44.7,29.85,NW,315,9.2,9.2,99,0.00,CLR,,0.22,WeatherDisplay:10.37,2013-11-07 02:09:00,
2013-11-06 21:14:00,44.8,44.5,29.85,East,90,12.7,12.7,99,0.00,CLR,,0.22,WeatherDisplay:10.37,2013-11-07 02:14:00,
2013-11-06 21:19:00,44.8,44.5,29.85,NW,315,9.2,9.2,99,0.00,CLR,,0.22,WeatherDisplay:10.37,2013-11-07 02:19:00,
2013-11-06 21:24:00,44.6,44.3,29.86,SW,225,8.1,8.1,99,0.00,CLR,,0.22,WeatherDisplay:10.37,2013-11-07 02:24:00,
2013-11-06 21:29:00,44.4,44.2,29.86,NE,45,6.9,6.9,99,0.00,CLR,,0.22,WeatherDisplay:10.37,2013-11-07 02:29:00,
2013-11-06 21:34:00,44.4,44.2,29.86,South,180,8.1,8.1,99,0.00,CLR,,0.22,WeatherDisplay:10.37,2013-11-07 02:34:00,
2013-11-06 21:39:00,44.2,44.0,29.86,North,0,5.8,5.8,99,0.00,CLR,,0.22,WeatherDisplay:10.37,2013-11-07 02:39:00,
2013-11-06 21:44:00,44.1,43.8,29.86,SE,135,8.1,8.1,99,0.00,CLR,,0.22,WeatherDisplay:10.37,2013-11-07 02:44:00,
2013-11-06 21:49:00,44.1,43.8,29.85,NW,315,10.4,10.4,99,0.00,CLR,,0.22,WeatherDisplay:10.37,2013-11-07 02:49:00,
2013-11-06 21:54:00,44.1,43.5,29.86,North,0,4.6,4.6,98,0.00,CLR,,0.22,WeatherDisplay:10.37,2013-11-07 02:54:00,
2013-11-06 21:59:00,43.9,43.1,29.85,NW,315,5.8,5.8,97,0.00,CLR,,0.22,WeatherDisplay:10.37,2013-11-07 02:59:00,
2013-11-06 22:04:00,43.9,43.1,29.85,North,0,4.6,4.6,97,0.00,CLR,,0.22,WeatherDisplay:10.37,2013-11-07 03:04:00,
2013-11-06 22:09:00,43.5,42.5,29.86,NW,315,3.5,4.5,96,0.00,CLR,,0.22,WeatherDisplay:10.37,2013-11-07 03:09:00,
2013-11-06 22:14:00,43.5,42.5,29.87,SW,225,8.1,8.1,96,0.00,CLR,,0.22,WeatherDisplay:10.37,2013-11-07 03:14:00,
2013-11-06 22:19:00,43.5,42.5,29.86,NW,315,5.8,5.8,96,0.00,CLR,,0.22,WeatherDisplay:10.37,2013-11-07 03:19:00,
2013-11-06 22:24:00,43.3,42.3,29.87,East,90,5.8,0.0,96,0.00,CLR,,0.22,WeatherDisplay:10.37,2013-11-07 03:24:00,
2013-11-06 22:29:00,43.2,42.1,29.87,SW,225,5.8,5.8,96,0.00,CLR,,0.22,WeatherDisplay:10.37,2013-11-07 03:29:00,
2013-11-06 22:34:00,43.0,42.2,29.88,NW,315,3.5,4.5,97,0.00,CLR,,0.22,WeatherDisplay:10.37,2013-11-07 03:34:00,
2013-11-06 22:39:00,43.0,42.2,29.88,ESE,112,3.5,0.0,97,0.00,CLR,,0.22,WeatherDisplay:10.37,2013-11-07 03:39:00,
2013-11-06 22:44:00,43.0,42.2,29.87,NW,315,5.8,5.8,97,0.00,CLR,,0.22,WeatherDisplay:10.37,2013-11-07 03:44:00,
2013-11-06 22:49:00,43.0,42.2,29.88,SE,135,3.5,3.5,97,0.00,CLR,,0.22,WeatherDisplay:10.37,2013-11-07 03:49:00,
2013-11-06 22:54:00,42.8,42.0,29.89,NW,315,3.5,3.5,97,0.00,CLR,,0.22,WeatherDisplay:10.37,2013-11-07 03:54:00,
2013-11-06 22:59:00,42.8,42.3,29.88,NW,315,3.5,3.5,98,0.00,CLR,,0.22,WeatherDisplay:10.37,2013-11-07 03:59:00,
2013-11-06 23:04:00,42.8,42.3,29.88,ENE,68,5.8,5.8,98,0.00,CLR,,0.22,WeatherDisplay:10.37,2013-11-07 04:04:00,
2013-11-06 23:09:00,42.8,42.3,29.88,North,0,5.8,5.8,98,0.00,CLR,,0.22,WeatherDisplay:10.37,2013-11-07 04:09:00,
2013-11-06 23:14:00,43.0,42.7,29.88,North,0,3.5,3.5,99,0.00,CLR,,0.22,WeatherDisplay:10.37,2013-11-07 04:14:00,
2013-11-06 23:19:00,43.0,42.7,29.87,NW,315,5.8,5.8,99,0.00,CLR,,0.22,WeatherDisplay:10.37,2013-11-07 04:19:00,
2013-11-06 23:24:00,43.0,42.5,29.87,NNE,22,9.2,9.2,98,0.00,CLR,,0.22,WeatherDisplay:10.37,2013-11-07 04:24:00,
2013-11-06 23:29:00,43.0,42.5,29.86,NW,315,6.9,6.9,98,0.00,CLR,,0.22,WeatherDisplay:10.37,2013-11-07 04:29:00,
2013-11-06 23:34:00,42.8,42.3,29.88,NW,315,3.5,3.8,98,0.00,CLR,,0.22,WeatherDisplay:10.37,2013-11-07 04:34:00,
2013-11-06 23:39:00,42.8,42.3,29.89,West,270,6.9,6.9,98,0.00,CLR,,0.22,WeatherDisplay:10.37,2013-11-07 04:39:00,
2013-11-06 23:44:00,42.8,42.3,29.90,SW,225,8.1,8.1,98,0.00,CLR,,0.22,WeatherDisplay:10.37,2013-11-07 04:44:00,
2013-11-06 23:49:00,42.8,42.3,29.90,SW,225,5.8,5.8,98,0.00,CLR,,0.22,WeatherDisplay:10.37,2013-11-07 04:49:00,
2013-11-06 23:54:00,42.8,42.3,29.89,NW,315,3.5,0.0,98,0.00,CLR,,0.22,WeatherDisplay:10.37,2013-11-07 04:54:00,
2013-11-06 23:59:00,42.8,42.3,29.89,South,180,3.5,3.5,98,0.00,CLR,,0.22,WeatherDisplay:10.37,2013-11-07 04:59:00,